Weather History for Middleton, WI

Change the Weather History Date:

Wednesday, November 21, 2012

  Actual Average (KMSN) Record (KMSN)
Temperature  
Mean Temperature 44 °F 33 °F  
Max Temperature 57 °F 41 °F 67 °F (1913)
Min Temperature 30 °F 26 °F -7 °F (1880)
Degree Days  
Heating Degree Days 22 32  
Month to date heating degree days 558  
Since 1 July heating degree days 1271  
Cooling Degree Days 0 0  
Month to date cooling degree days 0  
Year to date cooling degree days 568  
Moisture  
Dew Point 39 °F    
Average Humidity 83    
Maximum Humidity 100    
Minimum Humidity 50    
Precipitation  
Precipitation 0.00 in 0.08 in 1.94 in (1934)
Month to date precipitation 1.69  
Year to date precipitation 32.04  
Snow  
Snow 0.00 in 0.20 in 4.20 in (1945)
Month to date snowfall 1.7  
Since 1 July snowfall 2.2  
Since 1 September snowfall 2.2  
Snow Depth -    
Sea Level Pressure  
Sea Level Pressure 30.09 in    
Wind  
Wind Speed 4 mph (SSW)    
Max Wind Speed 16 mph    
Max Gust Speed 21 mph    
Visibility 6 miles    
Events      
T = Trace of Precipitation, MM = Missing Value Source: NWS Daily Summary

Daily Weather History Graph

Daily Weather History Graph

Search for Another Location

Airport:

Trip Planner

Search our weather history database for the weather conditions in past years. The results will help you decide how hot, cold, wet, or windy it might be!

Date:

Astronomy

Nov. 21, 2012 Rise Set
Actual Time 6:58 AM CST 4:28 PM CST
Civil Twilight 6:27 AM CST 5:00 PM CST
Nautical Twilight 5:52 AM CST 5:34 PM CST
Astronomical Twilight 5:19 AM CST 6:08 PM CST
Moon 12:54 PM CST (11/21) 12:08 AM CST (11/21)
Length of Visible Light 10h 32m
Length of Day
9h 30m
First Quarter, 62% of the Moon is Illuminated
Nov 21
First Quarter
Nov 28
Full
Dec 6
Last Quarter
Dec 13
New
Dec 19
First Quarter

Hourly Weather History & Observations

Time (CST) Temp. Windchill Dew Point Humidity Pressure Visibility Wind Dir Wind Speed Gust Speed Precip Events Conditions
12:15 AM 39.4 °F - 38.8 °F 98% 30.16 in 0.2 mi Calm Calm - N/A   Overcast
12:35 AM 38.8 °F - 38.3 °F 98% 30.16 in 0.2 mi Calm Calm - N/A   Overcast
12:55 AM 38.3 °F - 37.6 °F 97% 30.16 in 0.2 mi Calm Calm - N/A   Overcast
1:15 AM 37.4 °F - 37.0 °F 99% 30.16 in 0.2 mi Calm Calm - N/A   Overcast
1:35 AM 36.0 °F - 35.6 °F 99% 30.16 in 0.2 mi Calm Calm - N/A   Overcast
1:55 AM 34.7 °F - 34.3 °F 99% 30.17 in 0.2 mi Calm Calm - N/A   Overcast
2:15 AM 34.2 °F - 33.8 °F 99% 30.16 in 0.5 mi Calm Calm - N/A   Overcast
2:35 AM 34.2 °F - 33.8 °F 99% 30.16 in 0.5 mi Calm Calm - N/A   Mostly Cloudy
2:55 AM 32.7 °F 28.3 °F 32.5 °F 99% 30.16 in 1.5 mi SSW 4.6 mph - N/A   Scattered Clouds
3:15 AM 33.1 °F - 32.7 °F 99% 30.16 in 2.5 mi Calm Calm - N/A   Clear
3:35 AM 33.6 °F 30.6 °F 33.1 °F 98% 30.15 in 4.0 mi SSW 3.5 mph - N/A   Clear
3:55 AM 32.0 °F 28.7 °F 31.8 °F 99% 30.15 in 2.5 mi South 3.5 mph - N/A   Clear
4:15 AM 32.5 °F - 32.2 °F 99% 30.16 in 0.2 mi Calm Calm - N/A   Overcast
4:35 AM 30.7 °F - 30.6 °F 99% 30.17 in 0.5 mi Calm Calm - N/A   Mostly Cloudy
4:55 AM 30.6 °F - 30.4 °F 99% 30.18 in 0.8 mi Calm Calm - N/A   Overcast
5:15 AM 32.0 °F 27.5 °F 32.0 °F 100% 30.17 in 0.5 mi SW 4.6 mph - N/A   Overcast
5:35 AM 32.0 °F - 31.8 °F 99% 30.17 in 0.8 mi Calm Calm - N/A   Overcast
5:55 AM 31.1 °F - 31.1 °F 100% 30.17 in 1.0 mi Calm Calm - N/A   Scattered Clouds
6:15 AM 32.0 °F - 32.0 °F 100% 30.17 in 4.0 mi Calm Calm - N/A   Clear
6:35 AM 32.0 °F 28.7 °F 32.0 °F 100% 30.17 in 5.0 mi South 3.5 mph - N/A   Clear
6:55 AM 32.0 °F 28.7 °F 32.0 °F 100% 30.17 in 2.5 mi SSW 3.5 mph - N/A   Scattered Clouds
7:15 AM 32.0 °F 28.7 °F 32.0 °F 100% 30.17 in 0.2 mi South 3.5 mph - N/A   Overcast
7:35 AM 32.9 °F - 32.5 °F 99% 30.17 in 0.2 mi Calm Calm - N/A   Overcast
7:55 AM 33.6 °F 29.4 °F 33.3 °F 99% 30.17 in 0.2 mi South 4.6 mph - N/A   Overcast
8:15 AM 34.7 °F 31.8 °F 34.3 °F 99% 30.17 in 0.2 mi SSW 3.5 mph - N/A   Overcast
8:35 AM 36.5 °F - 36.0 °F 98% 30.17 in 0.5 mi Calm Calm - N/A   Overcast
8:55 AM 38.7 °F 35.2 °F 38.1 °F 98% 30.17 in 1.8 mi South 4.6 mph - N/A   Overcast
9:15 AM 40.3 °F 35.5 °F 39.7 °F 98% 30.17 in 3.0 mi South 6.9 mph - N/A   Mostly Cloudy
9:35 AM 41.0 °F 37.1 °F 40.5 °F 98% 30.17 in 4.0 mi South 5.8 mph - N/A   Scattered Clouds
9:55 AM 42.4 °F 38.1 °F 41.9 °F 98% 30.17 in 4.0 mi SSW 6.9 mph - N/A   Mostly Cloudy
10:15 AM 42.4 °F 37.0 °F 41.7 °F 97% 30.16 in 4.0 mi SSW 9.2 mph - N/A   Overcast
10:35 AM 42.8 °F 38.0 °F 42.3 °F 98% 30.16 in 4.0 mi SSW 8.1 mph - N/A   Overcast
10:55 AM 44.4 °F 39.0 °F 43.7 °F 97% 30.14 in 5.0 mi SSW 10.4 mph - N/A   Overcast
11:15 AM 46.6 °F - 46.0 °F 98% 30.13 in 7.0 mi SSW 8.1 mph - N/A   Mostly Cloudy
11:35 AM 49.6 °F - 44.6 °F 83% 30.12 in 7.0 mi SSW 10.4 mph - N/A   Scattered Clouds
11:55 AM 52.2 °F - 43.5 °F 72% 30.11 in 10.0 mi SSW 9.2 mph - N/A   Clear
12:15 PM 54.9 °F - 41.7 °F 61% 30.09 in 10.0 mi SSW 15.0 mph 19.6 mph N/A   Clear
12:35 PM 55.6 °F - 40.6 °F 57% 30.08 in 10.0 mi SSW 16.1 mph - N/A   Clear
12:55 PM 56.7 °F - 40.6 °F 55% 30.08 in 10.0 mi SSW 12.7 mph - N/A   Clear
1:15 PM 56.1 °F - 41.0 °F 57% 30.07 in 10.0 mi SSW 13.8 mph - N/A   Clear
1:35 PM 56.5 °F - 41.4 °F 57% 30.06 in 10.0 mi SSW 11.5 mph - N/A   Clear
2:15 PM 56.8 °F - 41.9 °F 57% 30.05 in 10.0 mi South 12.7 mph - N/A   Clear
2:35 PM 57.2 °F - 41.5 °F 56% 30.04 in 10.0 mi South 11.5 mph - N/A   Clear
2:55 PM 57.4 °F - 40.3 °F 53% 30.04 in 10.0 mi SSW 11.5 mph - N/A   Clear
3:15 PM 57.9 °F - 39.4 °F 50% 30.03 in 10.0 mi SSW 15.0 mph 20.7 mph N/A   Clear
3:35 PM 57.0 °F - 39.6 °F 52% 30.03 in 10.0 mi SSW 11.5 mph - N/A   Clear
3:55 PM 56.7 °F - 39.2 °F 52% 30.03 in 10.0 mi SSW 11.5 mph 18.4 mph N/A   Clear
4:15 PM 55.6 °F - 39.0 °F 54% 30.03 in 10.0 mi SSW 9.2 mph - N/A   Clear
4:35 PM 54.5 °F - 39.2 °F 56% 30.03 in 10.0 mi SSW 8.1 mph - N/A   Clear
4:55 PM 52.9 °F - 39.9 °F 61% 30.03 in 10.0 mi South 8.1 mph - N/A   Clear
5:15 PM 52.9 °F - 41.4 °F 65% 30.03 in 10.0 mi SSW 8.1 mph - N/A   Clear
5:35 PM 52.0 °F - 41.9 °F 69% 30.03 in 10.0 mi SSW 9.2 mph - N/A   Clear
5:55 PM 52.7 °F - 43.0 °F 70% 30.02 in 10.0 mi SSW 15.0 mph 18.4 mph N/A   Clear
6:15 PM 52.2 °F - 43.7 °F 73% 30.02 in 10.0 mi SSW 12.7 mph 17.3 mph N/A   Clear
6:35 PM 52.3 °F - 44.1 °F 73% 30.02 in 10.0 mi SSW 13.8 mph 19.6 mph N/A   Clear
6:55 PM 51.8 °F - 43.7 °F 74% 30.02 in 10.0 mi SSW 10.4 mph - N/A   Clear
7:15 PM 51.3 °F - 43.7 °F 75% 30.02 in 10.0 mi SW 9.2 mph - N/A   Clear
7:35 PM 51.3 °F - 43.5 °F 75% 30.02 in 10.0 mi SSW 9.2 mph 16.1 mph N/A   Clear
7:55 PM 50.9 °F - 43.3 °F 75% 30.01 in 10.0 mi SSW 12.7 mph - N/A   Clear
8:15 PM 50.9 °F - 43.3 °F 75% 30.01 in 10.0 mi SSW 12.7 mph - N/A   Clear
8:35 PM 50.9 °F - 43.5 °F 76% 30.01 in 10.0 mi SSW 13.8 mph - N/A   Clear
8:55 PM 50.9 °F - 43.7 °F 76% 30.01 in 10.0 mi SW 6.9 mph - N/A   Clear
9:15 PM 50.0 °F - 43.5 °F 78% 30.01 in 10.0 mi SSW 9.2 mph - N/A   Clear
9:35 PM 50.0 °F - 43.7 °F 79% 30.01 in 10.0 mi SSW 8.1 mph - N/A   Clear
9:55 PM 50.0 °F - 43.2 °F 77% 30.01 in 10.0 mi SSW 10.4 mph 16.1 mph N/A   Clear
10:15 PM 49.3 °F - 43.0 °F 79% 30.00 in 10.0 mi SW 9.2 mph - N/A   Clear
10:35 PM 48.4 °F - 42.8 °F 81% 30.00 in 10.0 mi SW 5.8 mph - N/A   Clear
10:55 PM 49.1 °F - 42.6 °F 78% 30.00 in 10.0 mi SW 5.8 mph - N/A   Clear
11:15 PM 48.2 °F - 42.3 °F 80% 30.01 in 10.0 mi WSW 5.8 mph - N/A   Clear
11:35 PM 47.8 °F - 41.9 °F 80% 30.00 in 10.0 mi WSW 3.5 mph - N/A   Clear
11:55 PM 48.4 °F - 42.1 °F 79% 30.00 in 10.0 mi SSW 9.2 mph - N/A   Clear